Location: Unspecified
(17.6330°N, 0.0000°E)
Time: 18:16:34
(UTC+00:00)

Courier 1B Rocket - Pass Details

Date: 29 June 2019
Orbit: 920 x 1202 km, 28.2° (Epoch: 15 July)

Event Time Altitude Azimuth Distance (km) Brightness Sun altitude
Exits shadow 00:37:15 11° 62° (ENE) 2,945 7.8 -48.3°
Drops below altitude 10° 00:37:22 10° 62° (ENE) 2,985 7.8 -48.3°
Sets 00:40:07 0° 65° (ENE) 3,914 8.5 -48.1°
